UAE72N DTTA-OMDB

Flight info

Callsign UAE72N
Flight time N/A
Altitude 29000
Route DIDON2A DIDON UR781 SONAK DCT DOBIX N4 ARLOS/N0472F390 UN4 SALUN N705 MMA P751 DASUM DCT FYM M872 WEJ J852 TULOK/N0485F410 J852 BDB Y214 RAPMA/N0479F290 Y214 RIBOT DCT ELUDA DCT MUSAP DCT KIPOK DCT NALNU DCT IMPED
Aircraft A359/H-SDE2E3GHIJ1J3J4J5LM1ORWXY/LB1D1

Departure

Time 2026-05-07 11:38
Airport Tunis Carthage International Airport (DTTA)

Arrival

Time N/A
Airport Dubai International Airport (OMDB)
Time Latitude Longitude Altitude Speed Heading
2026-05-07 10:51 36.84529 10.21952 37 ft 0 kts 356°
2026-05-07 11:29 36.84527 10.21952 36 ft 2 kts 356°
2026-05-07 11:29 36.84501 10.21954 36 ft 4 kts 356°
2026-05-07 11:30 36.84474 10.21956 35 ft 4 kts 356°
2026-05-07 11:30 36.84452 10.21960 36 ft 4 kts 323°
2026-05-07 11:30 36.84443 10.21983 36 ft 4 kts 257°
2026-05-07 11:30 36.84453 10.22014 36 ft 4 kts 238°
2026-05-07 11:31 36.84468 10.22041 36 ft 4 kts 228°
2026-05-07 11:31 36.84488 10.22064 36 ft 4 kts 213°
2026-05-07 11:31 36.84511 10.22080 36 ft 4 kts 197°
2026-05-07 11:31 36.84538 10.22086 36 ft 4 kts 184°
2026-05-07 11:32 36.84580 10.22088 36 ft 0 kts 192°
2026-05-07 11:34 36.84571 10.22086 36 ft 3 kts 191°
2026-05-07 11:34 36.84530 10.22083 36 ft 8 kts 166°
2026-05-07 11:35 36.84505 10.22148 36 ft 11 kts 103°
2026-05-07 11:35 36.84469 10.22237 36 ft 13 kts 153°
2026-05-07 11:35 36.84378 10.22228 37 ft 15 kts 195°
2026-05-07 11:35 36.84262 10.22196 37 ft 19 kts 192°
2026-05-07 11:36 36.84122 10.22155 37 ft 22 kts 193°
2026-05-07 11:36 36.83970 10.22116 37 ft 23 kts 192°
2026-05-07 11:36 36.83874 10.22122 36 ft 8 kts 123°
2026-05-07 11:36 36.83871 10.22191 37 ft 9 kts 83°
2026-05-07 11:37 36.83892 10.22266 37 ft 10 kts 62°
2026-05-07 11:37 36.83929 10.22341 37 ft 11 kts 58°
2026-05-07 11:37 36.83985 10.22391 37 ft 2 kts 14°
2026-05-07 11:37 36.84005 10.22397 37 ft 20 kts 14°
2026-05-07 11:38 36.84373 10.22499 36 ft 87 kts 12°
2026-05-07 11:38 36.85156 10.22712 39 ft 142 kts 12°
2026-05-07 11:38 36.86283 10.23015 99 ft 184 kts 11°
2026-05-07 11:38 36.87490 10.23344 985 ft 167 kts 12°
2026-05-07 11:39 36.88598 10.23698 1700 ft 169 kts 15°
2026-05-07 11:39 36.89830 10.23722 1977 ft 190 kts 345°
2026-05-07 11:39 36.90992 10.22817 2319 ft 210 kts 311°
2026-05-07 11:39 36.91595 10.21147 2867 ft 218 kts 278°
2026-05-07 11:40 36.91404 10.19252 3518 ft 222 kts 257°
2026-05-07 11:40 36.91408 10.17335 4135 ft 222 kts 284°
2026-05-07 11:40 36.91574 10.15420 4840 ft 223 kts 266°
2026-05-07 11:40 36.90978 10.13641 5543 ft 229 kts 230°
2026-05-07 11:41 36.89609 10.12637 6164 ft 237 kts 192°
2026-05-07 11:41 36.87972 10.12870 6771 ft 244 kts 154°
2026-05-07 11:41 36.86750 10.14318 7414 ft 248 kts 116°
2026-05-07 11:41 36.86221 10.16355 8127 ft 248 kts 101°
2026-05-07 11:42 36.85874 10.18481 8813 ft 251 kts 99°
2026-05-07 11:42 36.85530 10.20639 9474 ft 255 kts 100°
2026-05-07 11:42 36.85129 10.22809 10109 ft 259 kts 108°
2026-05-07 11:42 36.84412 10.24900 10643 ft 267 kts 116°
2026-05-07 11:43 36.83834 10.27197 10961 ft 288 kts 105°
2026-05-07 11:43 36.83374 10.29708 11270 ft 307 kts 104°
2026-05-07 11:43 36.82909 10.32404 11592 ft 326 kts 104°
2026-05-07 11:43 36.82424 10.35249 11906 ft 344 kts 104°
2026-05-07 11:44 36.81916 10.38236 12209 ft 361 kts 104°
2026-05-07 11:44 36.81389 10.41335 12502 ft 377 kts 104°
2026-05-07 11:44 36.80839 10.44580 12929 ft 387 kts 104°
2026-05-07 11:44 36.80276 10.47889 13449 ft 393 kts 104°
2026-05-07 11:45 36.79706 10.51238 14061 ft 397 kts 104°
2026-05-07 11:45 36.79128 10.54629 14635 ft 401 kts 104°
2026-05-07 11:45 36.78543 10.58044 15228 ft 405 kts 104°
2026-05-07 11:45 36.77951 10.61500 15798 ft 409 kts 104°
2026-05-07 11:46 36.77546 10.63857 16179 ft 412 kts 105°
2026-05-07 11:46 36.76953 10.67311 16772 ft 416 kts 105°
2026-05-07 11:46 36.76341 10.70860 17349 ft 420 kts 105°
2026-05-07 11:46 36.75725 10.74425 17901 ft 424 kts 105°
2026-05-07 11:47 36.75100 10.78037 18476 ft 427 kts 105°
2026-05-07 11:47 36.74469 10.81677 18992 ft 432 kts 105°
2026-05-07 11:47 36.73829 10.85361 19511 ft 436 kts 105°
2026-05-07 11:47 36.73186 10.89074 20009 ft 441 kts 105°
2026-05-07 11:48 36.72532 10.92824 20515 ft 445 kts 105°
2026-05-07 11:48 36.71869 10.96616 21006 ft 450 kts 105°
2026-05-07 11:48 36.71200 11.00438 21485 ft 454 kts 105°
2026-05-07 11:48 36.70523 11.04294 21990 ft 457 kts 105°
2026-05-07 11:49 36.69834 11.08171 22467 ft 461 kts 105°
2026-05-07 11:49 36.69115 11.12080 22940 ft 465 kts 105°
2026-05-07 11:49 36.68380 11.16018 23406 ft 469 kts 105°
2026-05-07 11:49 36.67634 11.19987 23845 ft 473 kts 105°
2026-05-07 11:50 36.66886 11.23975 24274 ft 477 kts 105°
2026-05-07 11:50 36.66128 11.28018 24691 ft 481 kts 105°
2026-05-07 11:50 36.65369 11.32078 25096 ft 486 kts 106°
2026-05-07 11:50 36.64600 11.36190 25497 ft 490 kts 106°
2026-05-07 11:51 36.63819 11.40354 25837 ft 496 kts 106°
2026-05-07 11:51 36.63033 11.44551 26201 ft 500 kts 106°
2026-05-07 11:51 36.62230 11.48785 26563 ft 505 kts 106°
2026-05-07 11:51 36.61432 11.53061 26947 ft 509 kts 106°
2026-05-07 11:52 36.60627 11.57366 27295 ft 514 kts 107°
2026-05-07 11:52 36.59788 11.61714 27632 ft 518 kts 107°
2026-05-07 11:52 36.58945 11.66098 28033 ft 523 kts 107°
2026-05-07 11:52 36.58100 11.70506 28361 ft 526 kts 107°
2026-05-07 11:53 36.57260 11.74948 28590 ft 532 kts 107°
2026-05-07 11:53 36.56405 11.79445 28837 ft 535 kts 106°
2026-05-07 11:53 36.55559 11.83894 28882 ft 521 kts 107°
2026-05-07 11:54 36.53910 11.92527 28890 ft 511 kts 107°
2026-05-07 11:54 36.52251 12.01146 28879 ft 515 kts 108°
2026-05-07 11:55 36.50587 12.09689 28875 ft 511 kts 107°
2026-05-07 11:55 36.49403 12.18374 28879 ft 512 kts 101°
2026-05-07 11:56 36.48439 12.27148 28880 ft 513 kts 100°
2026-05-07 11:56 36.47484 12.35930 28869 ft 512 kts 100°
2026-05-07 11:57 36.46527 12.44708 28868 ft 514 kts 100°
2026-05-07 11:57 36.45544 12.53518 28868 ft 515 kts 101°
2026-05-07 11:58 36.44563 12.62316 28861 ft 515 kts 100°
2026-05-07 11:58 36.43569 12.71128 28856 ft 516 kts 101°
2026-05-07 11:59 36.42582 12.79951 28849 ft 516 kts 100°
2026-05-07 11:59 36.41591 12.88777 28850 ft 516 kts 100°
2026-05-07 12:00 36.40578 12.97621 28844 ft 517 kts 100°
2026-05-07 12:00 36.39559 13.06464 28838 ft 518 kts 100°